Погода в Вазерках

Россия / Пензенская область     53°27′09″N   45°06′08″E
темп.,
°C
ветер,
м/с
пор.,
м/с
влажн.,
%
обл.,
%
осадки,
мм/ч
давл.,
гПа
погр.,
м
10 мая, пн
пн1000:00+9сз3596100 1.6 1013286
03:00+9с3697100 2.4 1013305
06:00+10ссв3697100 0.8 1015240
09:00+11с4795100 1.1 1016277
12:00+15ссв7985100 0.0 1017574
15:00+17ссв71283100 0.1 1017744
18:00+15ссв81689100 0.0 1017411
21:00+14ссв71593100 0.9 1019371
11 мая, вт
вт1100:00+13св71492100 0.0 1019353
03:00+13св71491100 0.0 1020332
06:00+14всв61681100 0.0 1020448
09:00+17в6116998 0.0 1022857
12:00+16ю577793 0.4 1023522
15:00+17ююв466825 0.8 1025937
18:00+17ююз246530 0.0 1026160
21:00+12зсз3471100 0.1 102764
12 мая, ср
ср1200:00+12с1188100 1.4 102723
03:00+12св2497100 2.6 1025140
06:00+13в41195100 0.3 1025420
09:00+14в71685100 0.5 1024724
12:00+18вюв8136882 0.2 10241054
15:00+16вюв7157036 0.3 1024859
18:00+16юв51275100 0.0 1024653
21:00+14вюв4108098 0.0 1024282
13 мая, чт
чт1300:00+13в3107868 0.0 1024258
03:00+13в387965 0.0 1024158
06:00+14в4137197 0.0 1023320
09:00+17вюв61364100 0.0 1023493
12:00+18юв71364100 0.0 1023617
15:00+19юв6126394 0.1 1022789
18:00+20юв497195 0.0 1022270
21:00+15вюв388528 0.2 1022127
14 мая, пт
пт1400:00+14юв4118121 0.0 1022201
03:00+13юв4117773 0.0 1023192
06:00+14юв41273100 0.0 1023278
09:00+20ююв610545 0.0 1022559
12:00+24ююв6104570 0.0 10211132
15:00+25ююв6948100 0.0 10211300
18:00+22юв49625 0.0 1020216
21:00+17юв4107129 0.0 1020156